Volver al catálogo

STARLINK-34738

ActivoComunicacionesSSO
NORAD 64951·PAYLOAD·🇺🇸 United States

Lanzado Jul 26, 2025 desde Vandenberg Space Force Base

Loading…

Próximos Pases (próximas 24 horas)

TLE

ActualizadoSource: CelesTrak SupGP

Época: Sep 15, 2026, 02:31 UTC

1 64951C 25158V   26258.10534722 -.00046218  00000+0 -14346-2 0  2583
2 64951  97.2847 116.5410 0001404  87.1375 247.9993 15.33464255    14

Sigue STARLINK-34738 en tiempo real con AllMySat

Download on the App Store